Regional Weather Roundup
Issued by NWS

Home | Current Version | Previous Version | Text Only | Print | Product List | Glossary Off
Versions: 1 2 3 4 5 6 7 8 9 10 11 12 13 14 15 16 17 18 19 20 21 22 23 24 25 26 27 28 29 30 31 32 33 34 35 36 37 38 39 40 41 42 43 44 45 46 47 48 49 50

000
ASUS43 KBIS 180920
RWRND

NORTH DAKOTA REGIONAL WEATHER ROUNDUP
NATIONAL WEATHER SERVICE BISMARCK ND
300 AM CST THU DEC 18 2014

NOTE: "FAIR" INDICATES FEW OR NO CLOUDS BELOW 12,000 FEET WITH NO
SIGNIFICANT WEATHER AND/OR OBSTRUCTIONS TO VISIBILITY.


NDZ001>003-009>011-017-181000-
NORTHWEST NORTH DAKOTA

CITY           SKY/WX    TMP DP  RH WIND       PRES   REMARKS
WILLISTON      CLOUDY    20  16  84 SE7       30.03S WCI  11
MINOT          CLOUDY    12   8  84 SE7       30.10F WCI   1
MINOT AFB      MOCLDY    11  10  98 SE5       30.11S WCI   2
$$

NDZ018>021-031>035-040>046-181000-
SOUTHWEST NORTH DAKOTA

CITY           SKY/WX    TMP DP  RH WIND       PRES   REMARKS
BISMARCK       CLOUDY    17  13  84 SE9       30.15S WCI   6
DICKINSON      CLOUDY    20  16  84 S9        29.98F WCI   9
GARRISON         N/A     18  15  88 S8        30.09F WCI   8
HETTINGER ARPT CLOUDY    19  16  88 SE10      30.02S FOG     WCI   7
$$

NDZ004>008-012>016-024-026-027-054-181000-
NORTHEAST NORTH DAKOTA

CITY           SKY/WX    TMP DP  RH WIND       PRES   REMARKS
GRAND FORKS    PTCLDY     2  -1  88 SW5       30.30R WCI  -8
GRND FRKS AFB  PTCLDY     2   1  93 SW2       30.29R
DEVILS LAKE    PTCLDY     9   0  66 S7        30.19S WCI  -3
$$

NDZ022-023-025-028>030-036>039-047>053-181000-
SOUTHEAST NORTH DAKOTA

CITY           SKY/WX    TMP DP  RH WIND       PRES   REMARKS
FARGO          PTCLDY    10   6  84 S5        30.29S WCI   2
JAMESTOWN      CLOUDY    10   7  87 SE5       30.20F WCI   2
$$



USA.gov is the U.S. government's official web portal to all federal, state and local government web resources and services.